EW1549 Weather Reports


time (UTC)temp
C
wind
direction
speed
KPH
gust
KPH
rain 1hr
cm
rain 24hr
cm
rain mn
cm
humidity
%
barometer
mb
20190422004646 17 357 0.0 3.2 0.00 0.00 0.00 78 1016.2
20190422003057 17 357 0.0 6.4 0.00 0.00 0.00 78 1016.4
20190422001600 17 357 4.8 6.4 0.00 0.00 0.00 78 1016.5
20190422000055 17 357 3.2 4.8 0.00 0.00 0.00 78 1016.7
20190421234608 17 357 0.0 4.8 0.00 0.00 0.00 78 1016.7
20190421233040 18 357 0.0 0.0 0.00 0.00 0.00 78 1016.7
20190421231530 18 357 0.0 4.8 0.00 0.00 0.00 77 1016.9
20190421230024 18 357 0.0 3.2 0.00 0.00 0.00 77 1016.9
20190421224533 18 357 3.2 4.8 0.00 0.00 0.00 77 1016.7
20190421223124 18 357 0.0 3.2 0.00 0.00 0.00 77 1016.9
20190421221555 18 357 1.6 9.7 0.00 0.00 0.00 77 1017.1
20190421220029 18 357 8.0 14.5 0.00 0.00 0.00 76 1017.2
20190421214524 18 320 1.6 11.3 0.00 0.00 0.00 75 1017.2
20190421213040 18 320 0.0 9.7 0.00 0.00 0.00 74 1017.1
20190421211535 18 319 4.8 14.5 0.00 0.00 0.00 74 1016.7
20190421210103 18 342 4.8 14.5 0.00 0.00 0.00 74 1016.6
20190421204538 18 355 6.4 11.3 0.00 0.00 0.00 73 1016.5
20190421203020 18 355 8.0 16.1 0.00 0.00 0.00 72 1016.3
20190421201524 18 346 4.8 12.9 0.00 0.00 0.00 74 1016.3
20190421200056 18 338 9.7 17.7 0.00 0.00 0.00 74 1015.9
20190421194522 18 341 12.9 19.3 0.00 0.00 0.00 74 1015.8
20190421193031 19 330 11.3 17.7 0.00 0.00 0.00 73 1015.7
20190421191518 19 339 9.7 17.7 0.00 0.00 0.00 70 1015.6
20190421190029 20 328 11.3 19.3 0.00 0.00 0.00 69 1015.5
20190421184520 20 330 9.7 20.9 0.00 0.00 0.00 71 1015.4
20190421183022 19 333 11.3 24.1 0.00 0.00 0.00 71 1015.5
20190421181520 20 336 9.7 20.9 0.00 0.00 0.00 71 1015.5
20190421180009 20 312 16.1 22.5 0.00 0.00 0.00 70 1015.5
20190421174507 19 303 11.3 20.9 0.00 0.00 0.00 72 1015.5
20190421171506 20 319 14.5 25.7 0.00 0.00 0.00 68 1015.5
20190421170208 20 346 14.5 25.7 0.00 0.00 0.00 65 1015.6
20190421164701 20 319 17.7 25.7 0.00 0.00 0.00 64 1015.6
20190421163135 20 332 19.3 30.6 0.00 0.00 0.00 64 1015.8
20190421161633 20 320 19.3 27.4 0.00 0.00 0.00 63 1015.9
20190421160231 21 320 19.3 29.0 0.00 0.00 0.00 64 1016.0
20190421154651 21 326 20.9 27.4 0.00 0.00 0.00 61 1016.0
20190421153201 20 336 19.3 29.0 0.00 0.00 0.00 67 1016.4
20190421151633 20 327 19.3 32.2 0.00 0.00 0.00 64 1016.6
20190421150108 21 341 19.3 30.6 0.00 0.00 0.00 60 1016.4
20190421144606 21 324 19.3 30.6 0.00 0.00 0.00 62 1016.5
20190421143134 21 349 17.7 30.6 0.00 0.00 0.00 64 1016.6
20190421141646 20 328 19.3 27.4 0.00 0.00 0.00 66 1016.6
20190421140137 20 325 19.3 27.4 0.00 0.00 0.00 66 1016.5
20190421134633 20 329 16.1 25.7 0.00 0.00 0.00 66 1016.7
20190421133151 20 319 16.1 27.4 0.00 0.00 0.00 69 1016.8
20190421131741 19 326 11.3 24.1 0.00 0.00 0.00 70 1016.8
20190421124603 19 334 14.5 20.9 0.00 0.00 0.00 69 1016.8
20190421123114 19 319 14.5 25.7 0.00 0.00 0.00 66 1016.9
20190421121623 19 326 17.7 24.1 0.00 0.00 0.00 68 1016.9
20190421120114 19 324 9.7 19.3 0.00 0.00 0.00 69 1017.0
20190421114617 18 319 9.7 22.5 0.00 0.00 0.00 68 1017.4
20190421113107 18 332 9.7 16.1 0.00 0.00 0.00 71 1017.3
20190421111552 18 316 11.3 20.9 0.00 0.00 0.00 67 1017.3
20190421110134 18 305 11.3 24.1 0.00 0.00 0.00 67 1017.4
20190421104557 18 306 3.2 20.9 0.00 0.00 0.00 68 1017.4
20190421103108 18 358 8.0 25.7 0.00 0.00 0.00 68 1017.4
20190421101542 18 343 16.1 25.7 0.00 0.00 0.00 69 1017.4
20190421094608 18 339 17.7 40.2 0.00 0.00 0.00 71 1017.2
20190421093101 18 331 19.3 35.4 0.00 0.00 0.00 72 1017.0
20190421091552 18 307 14.5 29.0 0.00 0.00 0.00 73 1016.7
20190421090108 18 143 9.7 27.4 0.00 0.00 0.00 73 1016.6
20190421031620 17 313 9.7 24.1 0.00 0.00 0.00 71 1015.5
20190421030137 17 134 22.5 37.0 0.00 0.00 0.00 74 1015.8
20190421024641 17 331 17.7 38.6 0.00 0.00 0.00 75 1015.7
20190421023146 17 345 19.3 41.8 0.00 0.00 0.00 76 1015.9
20190421021631 17 322 14.5 33.8 0.00 0.00 0.00 76 1016.0
20190421020100 17 328 17.7 37.0 0.00 0.00 0.00 75 1015.9
20190421014635 17 337 9.7 22.5 0.00 0.00 0.00 73 1016.1
20190421011632 17 329 12.9 35.4 0.00 0.00 0.00 71 1016.5
20190421010036 17 149 14.5 20.9 0.00 0.00 0.00 69 1016.6